Regional Weather Roundup
Issued by NWS

Home | Current Version | Previous Version | Graphics & Text | Print | Product List | Glossary On
Versions: 1 2 3 4 5 6 7 8 9 10 11 12 13 14 15 16 17 18 19 20 21 22 23 24 25 26 27 28 29 30 31 32 33 34 35 36 37 38 39 40 41 42 43 44 45 46 47 48 49 50
986
ASUS44 KLIX 261710
RWRLA
LOUISIANA WEATHER ROUNDUP
NATIONAL WEATHER SERVICE NEW ORLEANS LA
1100 AM CST MON JAN 26 2015

NOTE: "FAIR" INDICATES FEW OR NO CLOUDS BELOW 12,000 FEET WITH NO
      SIGNIFICANT WEATHER AND/OR OBSTRUCTIONS TO VISIBILITY.
      SKY/WX - SKY CONDITION AND SIGNIFICANT WEATHER.
      TMP - AIR TEMPERATURE.    DP   - DEWPOINT TEMPERATURE.
      RH  - RELATIVE HUMIDITY.  PRES - PRESSURE.
      HX  - HEAT INDEX.         WCI  - WIND CHILL INDEX.

*  THESE STATIONS ARE NOT NWS OR FAA STATIONS AND ARE NOT UNDER
   NWS QUALITY CONTROL.

LAZ040-048-061>063-065-066-069-261800-
SOUTHEAST LOUISIANA

CITY           SKY/WX    TMP DP  RH WIND       PRES   REMARKS
N.O. AUDUBON     N/A     56  39  52 MISG        N/A
N.O. INTL ARPT MOSUNNY   54  35  48 NW16G24   30.14F
N.O. LAKEFRONT SUNNY     55  38  52 NW17      30.14F
N.O. DOWNTOWN* FAIR      52  34  50 N10G18    30.14F
SLIDELL        SUNNY     58  35  42 NW13G23   30.11F
BATON ROUGE    SUNNY     54  34  46 N10       30.17F
BOOTHVILLE     SUNNY     53  39  59 NW10      30.13F
BELLE CHASSE   MOSUNNY   54  34  46 NW13G21   30.13F
BOGALUSA*        N/A     55  37  50 N12G20    30.15S
GALLIANO*      SUNNY     57  37  47 MISG      30.15S
NEW ROADS*     FAIR      53  35  50 NW8       30.18F
GONZALES*      FAIR      55  35  47 N10G21    30.15F
HAMMOND*       SUNNY     55  34  44 NW13G20   30.15F
HOUMA*         SUNNY     55  36  47 NW14      30.15S
PORT FOURCHON* SUNNY     55  37  50 N8G16     30.18F

$$

LAZ041-044-053-054-261800-
SOUTHWEST LOUISIANA

CITY           SKY/WX    TMP DP  RH WIND       PRES   REMARKS
LAKE CHARLES   SUNNY     58  34  40 N12       30.20F
LAFAYETTE      SUNNY     56  35  45 N15G21    30.18F
PATTERSON      SUNNY     55  34  44 NW9       30.16F
SALT POINT       N/A     55  37  50 NW10      30.16S
NEW IBERIA     SUNNY     56  35  45 N18       30.18S
CHENAULT AIRPK NOT AVBL

$$

LAZ027-028-261800-
CENTRAL LOUISIANA

CITY           SKY/WX    TMP DP  RH WIND       PRES   REMARKS
FORT POLK      SUNNY     53  34  47 N14       30.19F
ALEXANDRIA INT SUNNY     53  35  50 VRB5      30.19F
ALEXANDRIA     SUNNY     53  34  48 VRB5      30.19F

$$

LAZ001-002-261800-
NORTHWEST LOUISIANA

CITY           SKY/WX    TMP DP  RH WIND       PRES   REMARKS
SHREVEPORT     SUNNY     53  33  46 N7        30.20F
BARKSDALE AFB  SUNNY     51  33  51 NW10      30.21F
DTN SHREVEPORT SUNNY     50  32  50 NW6       30.21F

$$

LAZ014-016-261800-
NORTHEAST LOUISIANA

CITY           SKY/WX    TMP DP  RH WIND       PRES   REMARKS
MONROE         SUNNY     50  35  56 NW9       30.20S
TALLULAH       MOSUNNY   50  35  56 N12       30.20R

$$




USA.gov is the U.S. government's official web portal to all federal, state and local government web resources and services.